Regional Weather Roundup
Issued by NWS

Home | Current Version | Previous Version | Text Only | Print | Product List | Glossary Off
Versions: 1 2 3 4 5 6 7 8 9 10 11 12 13 14 15 16 17 18 19 20 21 22 23 24 25 26 27 28 29 30 31 32 33 34 35 36 37 38 39 40 41 42 43 44 45 46 47 48 49 50

000
ASUS45 KBOU 040707
RWRCO

WEATHER ROUNDUP FOR COLORADO
NATIONAL WEATHER SERVICE DENVER/BOULDER CO
100 AM MDT FRI SEP 04 2015

NOTE: "FAIR" INDICATES FEW OR NO CLOUDS BELOW 12000 FEET WITH NO
SIGNIFICANT WEATHER AND/OR OBSTRUCTIONS TO VISIBILITY.

COZ001>005-013-030-031-040800-
...NORTHWEST COLORADO...

CITY           SKY/WX    TMP DP  RH WIND       PRES   REMARKS
CRAIG          CLEAR     58  46  64 E7        30.06S
HAYDEN         CLEAR     54  43  66 E10       30.09R
MEEKER         CLEAR     57  46  66 CALM      30.06S
MOUNT WERNER   NOT AVBL
STEAMBOAT SPGS CLEAR     47  43  86 N3        30.13R
WALDEN         CLEAR     41  37  87 SE6       30.20S
$$

COZ006>008-011-040800-
...WEST CENTRAL VALLEYS...

CITY           SKY/WX    TMP DP  RH WIND       PRES   REMARKS
GRAND JUNCTION CLEAR     67  50  54 SE17      29.95S
MONTROSE       CLEAR     60  49  66 CALM      30.07R
EAGLE          CLEAR     50  48  93 E5        30.17F
RIFLE          CLEAR     57  51  80 CALM      30.04S
DELTA          CLEAR     61  49  65 E7        30.03R
NUCLA          CLEAR     63  37  39 E8        30.10R
$$

COZ017>023-064>068-040800-
...SOUTHWEST COLORADO...

CITY           SKY/WX    TMP DP  RH WIND       PRES   REMARKS
DURANGO        MOCLDY    55  40  56 SE3       30.15R
CORTEZ         CLEAR     60  43  53 VRB5      30.08R
PAGOSA SPRINGS MOCLDY    51  43  75 CALM      30.22S
TELLURIDE      MOCLDY    51  41  70 SE3       30.32S
WOLF CREEK PAS NOT AVBL
$$

COZ009-010-012-014-032>034-037-058>063-040800-
...CENTRAL COLORADO...

CITY           SKY/WX    TMP DP  RH WIND       PRES   REMARKS
ASPEN          CLEAR     47  43  86 CALM      30.20S
BUENA VISTA    PTCLDY    49  44  84 CALM      30.23S
COPPER MTN     CLEAR     46  34  61 SW14G21   30.47S
BERTHOUD PASS  FAIR      39  28  65 W24G38    30.49R
COTTONWOOD PAS PTCLDY    55  37  50 CALM      30.33F
GUNNISON       PTCLDY    52  45  76 CALM      30.26R
KREMMLING      FOG       43  41  93 CALM      30.22S VSB 1/2
LEADVILLE      CLEAR     37  37 100 NE6       30.33S
MONARCH PASS   MOCLDY    43  37  81 SW16      30.58R
SALIDA         PTCLDY    58  45  62 N8        30.27S
SUNLIGHT       PTCLDY    48  43  81 CALM      30.40F
WILKERSON PASS PTCLDY    45  37  76 W9        30.44S
$$

COZ069>075-040800-
...SAN LUIS VALLEY/SANGRE DE CRISTO MOUNTAINS...

CITY           SKY/WX    TMP DP  RH WIND       PRES   REMARKS
ALAMOSA        MOCLDY    49  45  86 MISG      30.20S
LA VETA PASS   PTCLDY    48  37  66 MISG      30.36S
SAGUACHE       PTCLDY    46  45  93 N10       30.24S
$$

COZ035-036-038>040-040800-
...NORTHERN COLORADO FRONT RANGE...

CITY           SKY/WX    TMP DP  RH WIND       PRES   REMARKS
DENVER INTL AP PTCLDY    60  53  77 SW9       29.99S
DMNS CITY PARK   N/A     60  53  78 SE8       29.99S
AURORA         PTCLDY    58  53  82 S8        30.01S
FRONT RANGE AP CLEAR     55  50  82 S7        30.00S
ERIE MUNI ARPT CLEAR     53  50  90 CALM      29.98R
BOULDER MUN AP CLEAR     61  50  67 CALM      29.98S
CENTENNIAL     PTCLDY    62  51  67 SW9       30.02S
BROOMFIELD     CLEAR     61  48  63 SE3       30.01S
FORT COLLINS   CLEAR     57  48  72 CALM      29.98S
LONGMONT       CLEAR     54  48  80 CALM      29.99S
$$

COZ041-046-047-076>085-087-088-040800-
...PIKES PEAK/PALMER DIVIDE AND SOUTHERN FOOTHILLS...

CITY           SKY/WX    TMP DP  RH WIND       PRES   REMARKS
COLO. SPRINGS  NOT AVBL
A. F. ACADEMY  CLEAR     53  48  83 NE3       30.08R
ELLICOTT       PTCLDY   N/A N/A N/A CALM      30.05R
FALCON         PTCLDY    58  47  66 MISG      30.10S
FORT CARSON    PTCLDY    57  49  75 N6        30.02F
LIMON          CLEAR     56  52  86 W6        30.00S
MONUMENT HILL  CLEAR     54  46  76 SW9       30.11S
TRINIDAD       CLEAR     61  47  59 W10       30.06R
$$

COZ042>045-048>051-090-091-040800-
...NORTHEAST COLORADO...

CITY           SKY/WX    TMP DP  RH WIND       PRES   REMARKS
GREELEY ARPT   CLEAR     54  50  87 CALM      29.97R
AKRON          CLEAR     62  52  69 SW9       29.94S
BURLINGTON     PTCLDY    63  52  67 NW8       29.90F
WRAY           CLOUDY    64  60  86 SW3       29.87R
STERLING       CLEAR     61  54  77 W3        29.88S
HOLYOKE        CLOUDY    70  54  56 NW7       29.86S
FORT MORGAN    CLEAR     55  49  80 CALM      29.94F
$$

COZ086-089-092>099-040800-
...SOUTHEAST COLORADO...

CITY           SKY/WX    TMP DP  RH WIND       PRES   REMARKS
PUEBLO         PTCLDY    63  53  70 E3        29.97R
LA JUNTA       CLEAR     71  51  49 S3        29.94R
LAMAR          PTCLDY    68  53  58 W5        29.87S
SPRINGFIELD      N/A     65  47  52 W6        29.94S
$$



USA.gov is the U.S. government's official web portal to all federal, state and local government web resources and services.